Tracking 28052 objects as of 24-Sep-2023
HD Live streaming from Space Station
objects crossing your sky now

THORAD DELTA 1 DEB

Track THORAD DELTA 1 DEB now!
10-day predictions


NORAD ID: 8178
Int'l Code: 1974-089AU
Perigee: 1,297.6 km
Apogee: 1,620.2 km
Inclination: 102.2 °
Period: 114.9 minutes
Semi major axis: 7829 km
RCS: 0.0233 m2 (small)
Launch date: November 15, 1974
Source: United States (US)
Launch site: AIR FORCE WESTERN TEST RANGE (AFWTR)

Note: This is SATELLITE DEBRIS
Your satellite tracking list
Your tracking list is empty




NASA's NSSDC Master Catalog

Two Line Element Set (TLE):
1 08178U 74089AU  23267.54765231  .00001686  00000-0  10113-1 0  9993
2 08178 102.2108 288.0153 0206050  91.7869  58.0365 12.53050548200877
Source of the keplerian elements: AFSPC